Location: Boussy-Saint-Antoine
(48.6830°N, 2.5330°E)
Time: 14:06:19
(UTC+02:00)

KKS-1 - Pass Details

Date: 30 July 2019
Orbit: 637 x 650 km, 98.3° (Epoch: 18 August)

Event Time Altitude Azimuth Distance (km) Brightness Sun altitude
Rises 23:02:02 0° 357° (N) 2,953 ? -12.5°
Reaches altitude 10° 23:05:48 10° 323° (NW) 2,039 ? -12.9°
Maximum altitude 23:07:09 11° 306° (NW) 1,952 ? -13.1°
Drops below altitude 10° 23:08:30 10° 288° (WNW) 2,037 ? -13.2°
Sets 23:12:15 0° 254° (WSW) 2,943 ? -13.6°
